Terug naar catalogus

STARLINK-1043

ActiefCommunicatieVLEO
NORAD 44748·PAYLOAD·🇺🇸 United States

Gelanceerd Nov 11, 2019 vanaf Cape Canaveral Space Force Station

Loading…

Volgende Passages (komende 24 uur)

TLE

VersSource: CelesTrak SupGP

Epoch: Sep 14, 2026, 20:36 UTC

1 44748C 19074AM  26257.85881944  .00022515  00000+0  16040-3 0  2572
2 44748  53.0460 349.0303 0001305 351.6848 262.3643 15.73139289    18

Volg STARLINK-1043 in realtime met AllMySat

Download on the App Store